This is the latest recevied weather packets stored in our database for station/object WC4PEM-6. If no packets are shown the sender has not sent any weather packets the latest 10 day(s).
| Time | Temp. | Humidity | Pressure | Rain* | Wind** | Luminosity | Snow |
|---|---|---|---|---|---|---|---|
| 1777728314 | 25° C | 80% | 1010.5 hPa | 0 mm | - | - | - |
| 1777728014 | 24.44° C | 81% | 1010.4 hPa | 0 mm | - | - | - |
| 1777727751 | 24.44° C | 82% | 1010.2 hPa | 0 mm | - | - | - |
| 1777727714 | 24.44° C | 82% | 1010.2 hPa | 0 mm | - | - | - |
| 1777727414 | 24.44° C | 82% | 1010.2 hPa | 0 mm | - | - | - |
| 1777727359 | 23.89° C | 83% | 1010.2 hPa | 0 mm | - | - | - |
| 1777727114 | 23.89° C | 83% | 1010.2 hPa | 0 mm | - | - | - |
| 1777726814 | 23.89° C | 83% | 1010.1 hPa | 0 mm | - | - | - |
| 1777726734 | 23.89° C | 84% | 1010.1 hPa | 0 mm | - | - | - |
| 1777726514 | 23.89° C | 84% | 1010.1 hPa | 0 mm | - | - | - |
| 1777726214 | 23.33° C | 85% | 1010.2 hPa | 0 mm | - | - | - |
| 1777725914 | 23.33° C | 86% | 1010.2 hPa | 0 mm | - | - | - |
| 1777725614 | 23.33° C | 87% | 1009.8 hPa | 0 mm | - | - | - |
| 1777725314 | 22.78° C | 88% | 1010.1 hPa | 0 mm | - | - | - |
| 1777725044 | 22.22° C | 90% | 1010.1 hPa | 0 mm | - | - | - |
| 1777725014 | 22.78° C | 89% | 1010.2 hPa | 0 mm | - | - | - |
| 1777724714 | 22.22° C | 90% | 1010.1 hPa | 0 mm | - | - | - |
| 1777724414 | 22.22° C | 92% | 1010 hPa | 0 mm | - | - | - |
| 1777724114 | 21.67° C | 92% | 1009.8 hPa | 0 mm | - | - | - |
| 1777723814 | 21.67° C | 93% | 1009.8 hPa | 0 mm | - | - | - |
| 1777723618 | 21.11° C | 94% | 1009.8 hPa | 0 mm | - | - | - |
| 1777723514 | 21.11° C | 94% | 1009.8 hPa | 0 mm | - | - | - |
| 1777723301 | 21.11° C | 95% | 1009.8 hPa | 0 mm | - | - | - |
| 1777723214 | 21.11° C | 95% | 1009.8 hPa | 0 mm | - | - | - |
| 1777722914 | 21.11° C | 95% | 1010 hPa | 0 mm | - | - | - |
* Rain latest hour (hover to see other rain measurements)
** Current wind speed in m/s (hover to see current wind gust speed)